Вернуться в каталог

STARLINK-37889

АктивенСвязьVLEO
NORAD 69536·PAYLOAD·🇺🇸 United States

Запущен Jun 12, 2026 с Cape Canaveral Space Force Station

Loading…

Ближайшие Пролёты (ближайшие 24 часа)

TLE

СвежийSource: CelesTrak SupGP

Эпоха: Sep 14, 2026, 23:07 UTC

1 69536C 26133AE  26257.96368056  .00038319  00000+0  11321-2 0  2579
2 69536  53.1563 255.5226 0001190  92.4309 324.4690 15.34372301    17

Отслеживайте STARLINK-37889 в реальном времени с AllMySat

Download on the App Store